Time,TemperatureF,DewpointF,PressureIn,WindDirection,WindDirectionDegrees,WindSpeedMPH,WindSpeedGustMPH,Humidity,HourlyPrecipIn,Conditions,Clouds,dailyrainin,SoftwareType,DateUTC
2013-04-16 00:00:00,55.6,50.1,29.68,ESE,113,2.2,2.2,82,0.00,,,0.16,WUHU216HW,2013-04-16 04:00:00,
2013-04-16 00:05:00,55.6,50.1,29.68,SSE,158,2.5,2.5,82,0.00,,,0.00,WUHU216HW,2013-04-16 04:05:00,
2013-04-16 00:10:00,55.6,50.1,29.68,SSE,158,2.0,4.0,82,0.00,,,0.00,WUHU216HW,2013-04-16 04:10:00,
2013-04-16 00:15:00,55.6,50.1,29.68,SSW,203,3.4,4.9,82,0.00,,,0.00,WUHU216HW,2013-04-16 04:15:00,
2013-04-16 00:20:00,55.6,50.1,29.68,SSW,203,0.7,4.9,82,0.00,,,0.00,WUHU216HW,2013-04-16 04:20:00,
2013-04-16 00:25:00,55.4,50.0,29.68,SE,135,1.3,3.4,82,0.00,,,0.00,WUHU216HW,2013-04-16 04:25:00,
2013-04-16 00:30:00,55.4,50.0,29.68,SSE,158,2.0,2.5,82,0.00,,,0.00,WUHU216HW,2013-04-16 04:30:00,
2013-04-16 00:35:00,55.6,50.1,29.68,SE,135,1.6,3.4,82,0.00,,,0.00,WUHU216HW,2013-04-16 04:35:00,
2013-04-16 00:40:00,55.6,50.5,29.68,NE,45,2.2,3.4,83,0.00,,,0.00,WUHU216HW,2013-04-16 04:40:00,
2013-04-16 00:45:00,55.6,50.5,29.68,SW,225,0.9,2.2,83,0.00,,,0.00,WUHU216HW,2013-04-16 04:45:00,
2013-04-16 00:50:00,55.4,50.3,29.67,SSW,203,2.0,2.2,83,0.00,,,0.00,WUHU216HW,2013-04-16 04:50:00,
2013-04-16 00:55:00,55.4,50.6,29.68,SW,225,2.0,2.2,84,0.00,,,0.00,WUHU216HW,2013-04-16 04:55:00,
2013-04-16 01:00:00,55.4,50.3,29.67,SSW,203,2.5,2.5,83,0.00,,,0.00,WUHU216HW,2013-04-16 05:00:00,
2013-04-16 01:05:00,55.3,50.1,29.68,WSW,248,4.0,4.0,83,0.00,,,0.00,WUHU216HW,2013-04-16 05:05:00,
2013-04-16 01:10:00,55.4,50.6,29.68,WSW,248,2.2,4.0,84,0.00,,,0.00,WUHU216HW,2013-04-16 05:10:00,
2013-04-16 01:15:00,55.4,50.3,29.67,WSW,248,0.4,4.0,83,0.00,,,0.00,WUHU216HW,2013-04-16 05:15:00,
2013-04-16 01:20:00,55.4,50.3,29.67,East,90,0.7,2.2,83,0.00,,,0.00,WUHU216HW,2013-04-16 05:20:00,
2013-04-16 01:25:00,55.4,50.3,29.67,SSE,158,2.0,2.0,83,0.00,,,0.00,WUHU216HW,2013-04-16 05:25:00,
2013-04-16 01:30:00,55.4,50.6,29.67,South,180,4.5,5.1,84,0.00,,,0.00,WUHU216HW,2013-04-16 05:30:00,
2013-04-16 01:35:00,55.4,50.6,29.67,SSE,158,4.7,5.8,84,0.00,,,0.00,WUHU216HW,2013-04-16 05:35:00,
2013-04-16 01:40:00,55.6,50.5,29.67,SSE,158,3.1,5.8,83,0.00,,,0.00,WUHU216HW,2013-04-16 05:40:00,
2013-04-16 01:45:00,55.6,50.5,29.67,WSW,248,2.9,4.7,83,0.00,,,0.00,WUHU216HW,2013-04-16 05:45:00,
2013-04-16 01:50:00,55.6,50.8,29.66,SE,135,2.9,4.5,84,0.00,,,0.00,WUHU216HW,2013-04-16 05:50:00,
2013-04-16 01:55:00,55.8,50.9,29.66,SSE,158,2.9,3.4,84,0.00,,,0.00,WUHU216HW,2013-04-16 05:55:00,
2013-04-16 02:00:00,55.8,50.9,29.66,SE,135,2.9,3.4,84,0.00,,,0.00,WUHU216HW,2013-04-16 06:00:00,
2013-04-16 02:05:00,55.8,50.9,29.66,SE,135,2.2,2.9,84,0.00,,,0.00,WUHU216HW,2013-04-16 06:05:00,
2013-04-16 02:10:00,55.8,50.9,29.66,SSW,203,3.6,3.6,84,0.00,,,0.00,WUHU216HW,2013-04-16 06:10:00,
2013-04-16 02:15:00,55.8,50.9,29.66,SSW,203,2.9,3.8,84,0.00,,,0.00,WUHU216HW,2013-04-16 06:15:00,
2013-04-16 02:20:00,56.0,51.1,29.66,SW,225,3.8,3.8,84,0.00,,,0.00,WUHU216HW,2013-04-16 06:20:00,
2013-04-16 02:25:00,56.0,51.5,29.66,SW,225,4.9,4.9,85,0.00,,,0.00,WUHU216HW,2013-04-16 06:25:00,
2013-04-16 02:30:00,55.8,51.3,29.66,SSE,158,3.4,4.9,85,0.00,,,0.00,WUHU216HW,2013-04-16 06:30:00,
2013-04-16 02:35:00,55.8,51.3,29.66,SSW,203,2.9,4.9,85,0.00,,,0.00,WUHU216HW,2013-04-16 06:35:00,
2013-04-16 02:40:00,55.8,50.9,29.66,WSW,248,1.6,4.5,84,0.00,,,0.00,WUHU216HW,2013-04-16 06:40:00,
2013-04-16 02:45:00,55.8,51.3,29.66,WSW,248,4.3,4.7,85,0.00,,,0.00,WUHU216HW,2013-04-16 06:45:00,
2013-04-16 02:50:00,55.8,51.3,29.66,SW,225,2.7,4.7,85,0.00,,,0.00,WUHU216HW,2013-04-16 06:50:00,
2013-04-16 02:55:00,55.8,51.3,29.66,WSW,248,4.5,4.5,85,0.00,,,0.00,WUHU216HW,2013-04-16 06:55:00,
2013-04-16 03:00:00,55.8,51.7,29.66,South,180,2.9,4.5,86,0.00,,,0.00,WUHU216HW,2013-04-16 07:00:00,
2013-04-16 03:05:00,55.8,51.3,29.65,SSW,203,3.8,4.5,85,0.00,,,0.00,WUHU216HW,2013-04-16 07:05:00,
2013-04-16 03:10:00,56.0,51.5,29.66,SSW,203,1.3,4.7,85,0.00,,,0.00,WUHU216HW,2013-04-16 07:10:00,
2013-04-16 03:15:00,56.0,51.9,29.65,SSW,203,3.6,4.7,86,0.00,,,0.00,WUHU216HW,2013-04-16 07:15:00,
2013-04-16 03:20:00,56.0,51.9,29.65,SSW,203,2.2,4.0,86,0.00,,,0.00,WUHU216HW,2013-04-16 07:20:00,
2013-04-16 03:25:00,56.0,51.9,29.65,SSW,203,3.6,3.6,86,0.00,,,0.00,WUHU216HW,2013-04-16 07:25:00,
2013-04-16 03:30:00,56.0,51.9,29.65,South,180,4.7,4.7,86,0.00,,,0.00,WUHU216HW,2013-04-16 07:30:00,
2013-04-16 03:35:00,56.0,51.9,29.65,SSW,203,4.5,5.8,86,0.00,,,0.00,WUHU216HW,2013-04-16 07:35:00,
2013-04-16 03:40:00,56.0,51.5,29.65,SSW,203,2.9,5.8,85,0.00,,,0.00,WUHU216HW,2013-04-16 07:40:00,
2013-04-16 03:45:00,56.2,51.7,29.65,SE,135,2.0,4.5,85,0.00,,,0.00,WUHU216HW,2013-04-16 07:45:00,
2013-04-16 03:50:00,56.2,51.7,29.65,SSE,158,1.8,2.9,85,0.00,,,0.00,WUHU216HW,2013-04-16 07:50:00,
2013-04-16 03:55:00,56.2,51.7,29.65,SSE,158,1.1,2.0,85,0.00,,,0.00,WUHU216HW,2013-04-16 07:55:00,
2013-04-16 04:00:00,56.2,51.7,29.65,SE,135,1.8,2.0,85,0.00,,,0.00,WUHU216HW,2013-04-16 08:00:00,
2013-04-16 04:05:00,56.0,51.5,29.65,ESE,113,1.3,2.0,85,0.00,,,0.00,WUHU216HW,2013-04-16 08:05:00,
2013-04-16 04:10:00,56.2,52.0,29.65,SW,225,3.6,4.0,86,0.00,,,0.00,WUHU216HW,2013-04-16 08:10:00,
2013-04-16 04:15:00,56.2,51.7,29.65,SSW,203,4.0,4.0,85,0.00,,,0.00,WUHU216HW,2013-04-16 08:15:00,
2013-04-16 04:20:00,56.2,51.7,29.65,ESE,113,2.0,5.1,85,0.00,,,0.00,WUHU216HW,2013-04-16 08:20:00,
2013-04-16 04:25:00,56.2,51.7,29.65,SW,225,1.3,5.1,85,0.00,,,0.00,WUHU216HW,2013-04-16 08:25:00,
2013-04-16 04:30:00,56.2,51.7,29.65,SSE,158,0.7,3.4,85,0.00,,,0.00,WUHU216HW,2013-04-16 08:30:00,
2013-04-16 04:35:00,56.2,51.7,29.65,SE,135,1.8,2.2,85,0.00,,,0.00,WUHU216HW,2013-04-16 08:35:00,
2013-04-16 04:40:00,56.2,51.7,29.65,South,180,5.1,5.1,85,0.00,,,0.00,WUHU216HW,2013-04-16 08:40:00,
2013-04-16 04:45:00,56.3,51.8,29.65,SE,135,2.2,5.1,85,0.00,,,0.00,WUHU216HW,2013-04-16 08:45:00,
2013-04-16 04:50:00,56.3,51.8,29.65,ESE,113,2.0,4.5,85,0.00,,,0.00,WUHU216HW,2013-04-16 08:50:00,
2013-04-16 04:55:00,56.3,51.8,29.65,SE,135,3.6,3.6,85,0.00,,,0.00,WUHU216HW,2013-04-16 08:55:00,
2013-04-16 05:00:00,56.3,52.2,29.65,SSE,158,4.3,4.3,86,0.00,,,0.00,WUHU216HW,2013-04-16 09:00:00,
2013-04-16 05:05:00,56.3,52.2,29.65,SSE,158,3.1,4.3,86,0.00,,,0.00,WUHU216HW,2013-04-16 09:05:00,
2013-04-16 05:10:00,56.3,51.8,29.65,SW,225,4.0,4.3,85,0.00,,,0.00,WUHU216HW,2013-04-16 09:10:00,
2013-04-16 05:15:00,56.3,52.2,29.65,SSW,203,2.5,4.0,86,0.00,,,0.00,WUHU216HW,2013-04-16 09:15:00,
2013-04-16 05:20:00,56.5,52.4,29.65,SE,135,4.0,4.0,86,0.00,,,0.00,WUHU216HW,2013-04-16 09:20:00,
2013-04-16 05:25:00,56.5,52.4,29.65,SSE,158,4.0,5.4,86,0.00,,,0.00,WUHU216HW,2013-04-16 09:25:00,
2013-04-16 05:30:00,56.5,52.4,29.65,SE,135,2.7,5.4,86,0.00,,,0.00,WUHU216HW,2013-04-16 09:30:00,
2013-04-16 05:35:00,56.5,52.4,29.65,SSE,158,2.2,4.0,86,0.00,,,0.00,WUHU216HW,2013-04-16 09:35:00,
2013-04-16 05:40:00,56.5,52.4,29.66,SSE,158,2.5,5.4,86,0.00,,,0.00,WUHU216HW,2013-04-16 09:40:00,
2013-04-16 05:45:00,56.5,52.4,29.66,SSW,203,3.4,5.4,86,0.00,,,0.00,WUHU216HW,2013-04-16 09:45:00,
2013-04-16 05:50:00,56.5,52.4,29.65,SSE,158,4.0,4.3,86,0.00,,,0.00,WUHU216HW,2013-04-16 09:50:00,
2013-04-16 05:55:00,56.5,52.4,29.66,SSW,203,3.1,4.3,86,0.00,,,0.00,WUHU216HW,2013-04-16 09:55:00,
2013-04-16 06:00:00,56.7,52.6,29.66,SSW,203,5.4,6.0,86,0.00,,,0.00,WUHU216HW,2013-04-16 10:00:00,
2013-04-16 06:05:00,56.7,52.6,29.66,SSE,158,5.1,6.3,86,0.00,,,0.00,WUHU216HW,2013-04-16 10:05:00,
2013-04-16 06:10:00,56.7,52.6,29.66,SW,225,3.4,6.3,86,0.00,,,0.00,WUHU216HW,2013-04-16 10:10:00,
2013-04-16 06:15:00,56.7,52.6,29.66,SW,225,2.2,5.1,86,0.00,,,0.00,WUHU216HW,2013-04-16 10:15:00,
2013-04-16 06:20:00,56.7,52.6,29.66,SSW,203,1.8,3.4,86,0.00,,,0.00,WUHU216HW,2013-04-16 10:20:00,
2013-04-16 06:25:00,56.5,52.4,29.66,SE,135,1.8,2.2,86,0.00,,,0.00,WUHU216HW,2013-04-16 10:25:00,
2013-04-16 06:30:00,56.5,52.4,29.66,SE,135,0.9,2.2,86,0.00,,,0.00,WUHU216HW,2013-04-16 10:30:00,
2013-04-16 06:35:00,56.5,52.4,29.67,South,180,0.7,1.8,86,0.00,,,0.00,WUHU216HW,2013-04-16 10:35:00,
2013-04-16 06:40:00,56.5,52.4,29.67,SE,135,0.7,2.5,86,0.00,,,0.00,WUHU216HW,2013-04-16 10:40:00,
2013-04-16 06:45:00,56.5,52.4,29.68,SE,135,0.9,2.5,86,0.00,,,0.00,WUHU216HW,2013-04-16 10:45:00,
2013-04-16 06:50:00,56.5,52.4,29.68,SE,135,1.3,1.8,86,0.00,,,0.00,WUHU216HW,2013-04-16 10:50:00,
2013-04-16 06:55:00,56.5,52.4,29.68,SSW,203,1.6,1.8,86,0.00,,,0.00,WUHU216HW,2013-04-16 10:55:00,
2013-04-16 07:00:00,56.5,52.4,29.68,SW,225,0.9,2.0,86,0.00,,,0.00,WUHU216HW,2013-04-16 11:00:00,
2013-04-16 07:05:00,56.5,52.4,29.68,SSW,203,1.1,2.0,86,0.00,,,0.00,WUHU216HW,2013-04-16 11:05:00,
2013-04-16 07:10:00,56.5,52.4,29.68,SE,135,0.9,1.1,86,0.00,,,0.00,WUHU216HW,2013-04-16 11:10:00,
2013-04-16 07:15:00,56.5,52.4,29.68,SE,135,0.7,1.1,86,0.00,,,0.00,WUHU216HW,2013-04-16 11:15:00,
2013-04-16 07:20:00,56.7,52.6,29.68,SE,135,0.7,1.1,86,0.00,,,0.00,WUHU216HW,2013-04-16 11:20:00,
2013-04-16 07:25:00,56.5,52.4,29.68,SSE,158,0.0,1.1,86,0.00,,,0.00,WUHU216HW,2013-04-16 11:25:00,
2013-04-16 07:30:00,56.7,52.6,29.69,SW,225,0.4,0.7,86,0.00,,,0.00,WUHU216HW,2013-04-16 11:30:00,
2013-04-16 07:35:00,56.9,52.8,29.69,SSW,203,0.7,1.1,86,0.00,,,0.00,WUHU216HW,2013-04-16 11:35:00,
2013-04-16 07:40:00,56.9,52.8,29.69,SSE,158,0.4,1.1,86,0.00,,,0.00,WUHU216HW,2013-04-16 11:40:00,
2013-04-16 07:45:00,57.1,52.9,29.70,SE,135,0.4,0.7,86,0.00,,,0.00,WUHU216HW,2013-04-16 11:45:00,
2013-04-16 07:50:00,57.2,53.1,29.70,SSW,203,0.4,0.7,86,0.00,,,0.00,WUHU216HW,2013-04-16 11:50:00,
2013-04-16 07:55:00,57.2,53.1,29.70,SSE,158,0.4,0.7,86,0.00,,,0.00,WUHU216HW,2013-04-16 11:55:00,
2013-04-16 08:00:00,57.2,53.1,29.70,SE,135,0.9,0.9,86,0.00,,,0.00,WUHU216HW,2013-04-16 12:00:00,
2013-04-16 08:05:00,57.6,53.7,29.71,SSE,158,1.8,1.8,87,0.00,,,0.00,WUHU216HW,2013-04-16 12:05:00,
2013-04-16 08:10:00,58.0,54.1,29.71,SSE,158,1.6,1.8,87,0.00,,,0.00,WUHU216HW,2013-04-16 12:10:00,
2013-04-16 08:15:00,58.1,54.3,29.71,SE,135,1.3,1.8,87,0.00,,,0.00,WUHU216HW,2013-04-16 12:15:00,
2013-04-16 08:20:00,58.5,54.4,29.71,SE,135,0.7,1.8,86,0.00,,,0.00,WUHU216HW,2013-04-16 12:20:00,
2013-04-16 08:25:00,58.7,54.6,29.71,SE,135,0.4,1.8,86,0.00,,,0.00,WUHU216HW,2013-04-16 12:25:00,
2013-04-16 08:30:00,59.0,54.9,29.71,SSE,158,3.1,3.1,86,0.00,,,0.00,WUHU216HW,2013-04-16 12:30:00,
2013-04-16 08:35:00,59.4,54.9,29.71,South,180,1.6,3.1,85,0.00,,,0.00,WUHU216HW,2013-04-16 12:35:00,
2013-04-16 08:40:00,59.6,55.1,29.70,SE,135,1.1,3.1,85,0.00,,,0.00,WUHU216HW,2013-04-16 12:40:00,
2013-04-16 08:45:00,59.9,55.4,29.70,SE,135,1.8,2.0,85,0.00,,,0.00,WUHU216HW,2013-04-16 12:45:00,
2013-04-16 08:50:00,60.3,55.4,29.70,SSE,158,1.6,2.5,84,0.00,,,0.00,WUHU216HW,2013-04-16 12:50:00,
2013-04-16 08:55:00,60.7,55.8,29.70,SSW,203,2.5,2.5,84,0.00,,,0.00,WUHU216HW,2013-04-16 12:55:00,
2013-04-16 09:00:00,60.8,55.7,29.70,SW,225,2.2,2.5,83,0.00,,,0.00,WUHU216HW,2013-04-16 13:00:00,
2013-04-16 09:05:00,61.2,56.1,29.70,SSW,203,1.8,2.5,83,0.00,,,0.00,WUHU216HW,2013-04-16 13:05:00,
2013-04-16 09:10:00,61.7,56.5,29.70,SW,225,1.3,2.2,83,0.00,,,0.00,WUHU216HW,2013-04-16 13:10:00,
2013-04-16 09:15:00,62.3,56.7,29.70,WSW,248,2.0,2.2,82,0.00,,,0.00,WUHU216HW,2013-04-16 13:15:00,
2013-04-16 09:20:00,64.1,58.5,29.70,SSE,158,1.1,2.2,82,0.00,,,0.00,WUHU216HW,2013-04-16 13:20:00,
2013-04-16 09:25:00,65.2,59.2,29.70,SSW,203,2.2,2.2,81,0.00,,,0.00,WUHU216HW,2013-04-16 13:25:00,
2013-04-16 09:30:00,66.2,59.9,29.70,SW,225,2.2,2.2,80,0.00,,,0.00,WUHU216HW,2013-04-16 13:30:00,
2013-04-16 09:35:00,66.8,60.1,29.70,SE,135,2.5,2.5,79,0.00,,,0.00,WUHU216HW,2013-04-16 13:35:00,
2013-04-16 09:40:00,67.7,60.7,29.70,SE,135,1.8,2.5,78,0.00,,,0.00,WUHU216HW,2013-04-16 13:40:00,
2013-04-16 09:45:00,68.4,60.9,29.70,SSW,203,2.5,2.5,77,0.00,,,0.00,WUHU216HW,2013-04-16 13:45:00,
2013-04-16 09:50:00,69.1,61.2,29.70,SSW,203,3.6,3.6,76,0.00,,,0.00,WUHU216HW,2013-04-16 13:50:00,
2013-04-16 09:55:00,70.0,61.3,29.70,SE,135,1.8,4.7,74,0.00,,,0.00,WUHU216HW,2013-04-16 13:55:00,
2013-04-16 10:00:00,70.0,61.3,29.69,SE,135,1.8,4.7,74,0.00,,,0.00,WUHU216HW,2013-04-16 14:00:00,
2013-04-16 10:05:00,70.7,62.0,29.69,South,180,2.2,3.1,74,0.00,,,0.00,WUHU216HW,2013-04-16 14:05:00,
2013-04-16 10:10:00,72.0,62.5,29.69,SE,135,1.8,4.0,72,0.00,,,0.00,WUHU216HW,2013-04-16 14:10:00,
2013-04-16 10:15:00,72.5,62.6,29.69,SE,135,2.9,4.5,71,0.00,,,0.00,WUHU216HW,2013-04-16 14:15:00,
2013-04-16 10:20:00,72.5,62.6,29.69,SW,225,2.5,4.9,71,0.00,,,0.00,WUHU216HW,2013-04-16 14:20:00,
2013-04-16 10:25:00,71.6,60.5,29.69,SSE,158,6.7,7.8,68,0.00,,,0.00,WUHU216HW,2013-04-16 14:25:00,
2013-04-16 10:30:00,72.0,61.3,29.69,SW,225,6.0,7.8,69,0.00,,,0.00,WUHU216HW,2013-04-16 14:30:00,
2013-04-16 10:35:00,73.1,61.9,29.69,SE,135,3.4,6.9,68,0.00,,,0.00,WUHU216HW,2013-04-16 14:35:00,
2013-04-16 10:40:00,73.8,62.7,29.69,SE,135,6.0,6.9,68,0.00,,,0.00,WUHU216HW,2013-04-16 14:40:00,
2013-04-16 10:45:00,74.2,62.1,29.69,SW,225,5.1,6.7,66,0.00,,,0.00,WUHU216HW,2013-04-16 14:45:00,
2013-04-16 10:50:00,74.2,62.1,29.69,SW,225,3.4,6.7,66,0.00,,,0.00,WUHU216HW,2013-04-16 14:50:00,
2013-04-16 10:55:00,73.1,60.6,29.69,SSE,158,4.7,7.8,65,0.00,,,0.00,WUHU216HW,2013-04-16 14:55:00,
2013-04-16 11:00:00,73.1,59.7,29.70,SW,225,9.2,9.2,63,0.00,,,0.00,WUHU216HW,2013-04-16 15:00:00,
2013-04-16 11:05:00,72.5,59.7,29.70,WSW,248,7.8,10.1,64,0.00,,,0.00,WUHU216HW,2013-04-16 15:05:00,
2013-04-16 11:10:00,71.8,59.4,29.69,WSW,248,5.4,10.1,65,0.00,,,0.00,WUHU216HW,2013-04-16 15:10:00,
2013-04-16 11:15:00,72.0,59.6,29.70,WSW,248,7.6,9.8,65,0.00,,,0.00,WUHU216HW,2013-04-16 15:15:00,
2013-04-16 11:20:00,72.0,59.1,29.70,SW,225,8.1,10.5,64,0.00,,,0.00,WUHU216HW,2013-04-16 15:20:00,
2013-04-16 11:25:00,71.8,59.9,29.70,SW,225,4.9,10.5,66,0.00,,,0.00,WUHU216HW,2013-04-16 15:25:00,
2013-04-16 11:30:00,71.6,59.2,29.70,South,180,12.8,12.8,65,0.00,,,0.00,WUHU216HW,2013-04-16 15:30:00,
2013-04-16 11:35:00,70.7,58.3,29.69,West,270,6.9,12.8,65,0.00,,,0.00,WUHU216HW,2013-04-16 15:35:00,
2013-04-16 11:40:00,70.6,58.2,29.69,WSW,248,13.0,13.0,65,0.00,,,0.00,WUHU216HW,2013-04-16 15:40:00,
2013-04-16 11:45:00,70.2,58.2,29.69,WSW,248,10.5,13.0,66,0.00,,,0.00,WUHU216HW,2013-04-16 15:45:00,
2013-04-16 11:50:00,70.2,58.2,29.69,WSW,248,8.5,13.0,66,0.00,,,0.00,WUHU216HW,2013-04-16 15:50:00,
2013-04-16 11:55:00,70.2,58.2,29.69,South,180,10.5,11.4,66,0.00,,,0.00,WUHU216HW,2013-04-16 15:55:00,
2013-04-16 12:00:00,70.2,58.2,29.69,SW,225,8.1,10.5,66,0.00,,,0.00,WUHU216HW,2013-04-16 16:00:00,
2013-04-16 12:05:00,70.4,58.9,29.69,SW,225,10.1,10.5,67,0.00,,,0.00,WUHU216HW,2013-04-16 16:05:00,
2013-04-16 12:10:00,70.7,59.2,29.69,SSW,203,6.9,11.0,67,0.00,,,0.00,WUHU216HW,2013-04-16 16:10:00,
2013-04-16 12:15:00,70.9,58.5,29.69,SW,225,11.6,11.6,65,0.00,,,0.00,WUHU216HW,2013-04-16 16:15:00,
2013-04-16 12:20:00,70.9,59.4,29.68,SW,225,6.9,11.6,67,0.00,,,0.00,WUHU216HW,2013-04-16 16:20:00,
2013-04-16 12:25:00,72.5,60.9,29.68,SSW,203,6.9,11.6,67,0.00,,,0.00,WUHU216HW,2013-04-16 16:25:00,
2013-04-16 12:30:00,72.9,60.8,29.68,SW,225,6.5,11.2,66,0.00,,,0.00,WUHU216HW,2013-04-16 16:30:00,
2013-04-16 12:35:00,73.3,59.9,29.68,SSE,158,6.9,7.4,63,0.00,,,0.00,WUHU216HW,2013-04-16 16:35:00,
2013-04-16 12:40:00,72.5,59.7,29.68,SSW,203,4.7,7.4,64,0.00,,,0.00,WUHU216HW,2013-04-16 16:40:00,
2013-04-16 12:45:00,72.5,60.5,29.67,SW,225,7.6,7.6,66,0.00,,,0.00,WUHU216HW,2013-04-16 16:45:00,
2013-04-16 12:50:00,72.7,59.8,29.67,WSW,248,6.3,10.1,64,0.00,,,0.00,WUHU216HW,2013-04-16 16:50:00,
2013-04-16 12:55:00,73.1,59.7,29.67,SW,225,9.8,10.1,63,0.00,,,0.00,WUHU216HW,2013-04-16 16:55:00,
2013-04-16 13:00:00,72.9,60.4,29.67,WSW,248,6.7,10.1,65,0.01,,,0.02,WUHU216HW,2013-04-16 17:00:00,
2013-04-16 13:05:00,73.4,60.9,29.66,SW,225,8.5,10.1,65,0.01,,,0.02,WUHU216HW,2013-04-16 17:05:00,
2013-04-16 13:10:00,73.6,58.9,29.66,SW,225,12.3,15.7,60,0.01,,,0.02,WUHU216HW,2013-04-16 17:10:00,
2013-04-16 13:15:00,73.4,59.6,29.66,SSW,203,13.2,15.7,62,0.01,,,0.02,WUHU216HW,2013-04-16 17:15:00,
2013-04-16 13:20:00,73.1,59.7,29.66,SSW,203,8.1,13.2,63,0.01,,,0.02,WUHU216HW,2013-04-16 17:20:00,
2013-04-16 13:25:00,72.7,59.8,29.66,SW,225,11.4,13.2,64,0.01,,,0.02,WUHU216HW,2013-04-16 17:25:00,
2013-04-16 13:30:00,72.7,59.8,29.65,SSW,203,8.5,11.4,64,0.01,,,0.02,WUHU216HW,2013-04-16 17:30:00,
2013-04-16 13:35:00,73.4,60.0,29.65,SW,225,11.4,11.4,63,0.01,,,0.02,WUHU216HW,2013-04-16 17:35:00,
2013-04-16 13:40:00,73.4,60.0,29.65,SSE,158,14.1,14.1,63,0.01,,,0.02,WUHU216HW,2013-04-16 17:40:00,
2013-04-16 13:45:00,73.4,59.6,29.64,SW,225,13.2,14.1,62,0.01,,,0.02,WUHU216HW,2013-04-16 17:45:00,
2013-04-16 13:50:00,72.9,59.0,29.64,SSW,203,11.4,14.1,62,0.01,,,0.02,WUHU216HW,2013-04-16 17:50:00,
2013-04-16 13:55:00,72.7,59.4,29.64,SSW,203,9.2,13.2,63,0.01,,,0.02,WUHU216HW,2013-04-16 17:55:00,
2013-04-16 14:00:00,72.9,59.5,29.64,SSW,203,7.6,11.4,63,0.00,,,0.02,WUHU216HW,2013-04-16 18:00:00,
2013-04-16 14:05:00,72.7,60.2,29.64,South,180,6.9,9.4,65,0.00,,,0.02,WUHU216HW,2013-04-16 18:05:00,
2013-04-16 14:10:00,72.9,59.5,29.63,South,180,9.6,9.8,63,0.00,,,0.02,WUHU216HW,2013-04-16 18:10:00,
2013-04-16 14:15:00,72.7,59.4,29.63,SSW,203,10.5,13.6,63,0.00,,,0.02,WUHU216HW,2013-04-16 18:15:00,
2013-04-16 14:20:00,73.1,60.6,29.63,WSW,248,8.5,13.6,65,0.00,,,0.02,WUHU216HW,2013-04-16 18:20:00,
2013-04-16 14:25:00,73.1,60.6,29.63,South,180,5.1,10.5,65,0.00,,,0.02,WUHU216HW,2013-04-16 18:25:00,
2013-04-16 14:30:00,73.1,60.6,29.63,SE,135,5.1,8.5,65,0.00,,,0.02,WUHU216HW,2013-04-16 18:30:00,
2013-04-16 14:35:00,72.9,60.4,29.63,SE,135,3.6,5.1,65,0.00,,,0.02,WUHU216HW,2013-04-16 18:35:00,
2013-04-16 14:40:00,72.5,60.0,29.63,SSE,158,4.7,6.3,65,0.00,,,0.02,WUHU216HW,2013-04-16 18:40:00,
2013-04-16 14:45:00,72.2,60.2,29.63,SE,135,3.4,6.3,66,0.00,,,0.02,WUHU216HW,2013-04-16 18:45:00,
2013-04-16 14:50:00,72.2,60.2,29.63,SE,135,4.3,4.7,66,0.00,,,0.02,WUHU216HW,2013-04-16 18:50:00,
2013-04-16 14:55:00,72.2,60.6,29.63,SSW,203,4.3,5.4,67,0.00,,,0.02,WUHU216HW,2013-04-16 18:55:00,
2013-04-16 15:00:00,72.0,60.4,29.63,SE,135,2.7,5.4,67,0.00,,,0.02,WUHU216HW,2013-04-16 19:00:00,
2013-04-16 15:05:00,72.0,60.8,29.62,ESE,113,2.9,4.7,68,0.00,,,0.02,WUHU216HW,2013-04-16 19:05:00,
2013-04-16 15:10:00,71.8,60.3,29.62,SSE,158,5.6,5.6,67,0.00,,,0.02,WUHU216HW,2013-04-16 19:10:00,
2013-04-16 15:15:00,71.6,60.5,29.61,SSE,158,2.9,5.6,68,0.00,,,0.02,WUHU216HW,2013-04-16 19:15:00,
2013-04-16 15:20:00,71.5,60.0,29.61,ESE,113,5.4,5.6,67,0.00,,,0.02,WUHU216HW,2013-04-16 19:20:00,
2013-04-16 15:25:00,71.1,60.0,29.61,SSE,158,4.9,5.4,68,0.00,,,0.02,WUHU216HW,2013-04-16 19:25:00,
2013-04-16 15:30:00,71.1,60.0,29.61,ESE,113,4.5,4.9,68,0.00,,,0.02,WUHU216HW,2013-04-16 19:30:00,
2013-04-16 15:35:00,71.3,60.1,29.61,SSE,158,4.7,4.9,68,0.00,,,0.02,WUHU216HW,2013-04-16 19:35:00,
2013-04-16 15:40:00,71.3,60.1,29.60,SE,135,5.6,5.6,68,0.00,,,0.02,WUHU216HW,2013-04-16 19:40:00,
2013-04-16 15:45:00,70.9,59.9,29.60,WSW,248,2.7,5.6,68,0.00,,,0.02,WUHU216HW,2013-04-16 19:45:00,
2013-04-16 15:50:00,70.9,59.9,29.60,South,180,3.4,5.6,68,0.00,,,0.02,WUHU216HW,2013-04-16 19:50:00,
2013-04-16 15:55:00,70.9,59.9,29.60,SSE,158,5.4,5.4,68,0.00,,,0.02,WUHU216HW,2013-04-16 19:55:00,
2013-04-16 16:00:00,70.9,60.2,29.60,SE,135,4.0,5.4,69,0.00,,,0.02,WUHU216HW,2013-04-16 20:00:00,
2013-04-16 16:05:00,70.9,60.7,29.60,SSE,158,2.2,5.4,70,0.00,,,0.02,WUHU216HW,2013-04-16 20:05:00,
2013-04-16 16:10:00,70.9,60.2,29.60,SSW,203,2.5,4.5,69,0.00,,,0.02,WUHU216HW,2013-04-16 20:10:00,
2013-04-16 16:15:00,70.9,60.2,29.60,SE,135,5.4,5.4,69,0.00,,,0.02,WUHU216HW,2013-04-16 20:15:00,
2013-04-16 16:20:00,70.9,60.2,29.59,SE,135,3.6,5.4,69,0.00,,,0.02,WUHU216HW,2013-04-16 20:20:00,
2013-04-16 16:25:00,70.9,60.2,29.60,SE,135,4.7,5.4,69,0.00,,,0.02,WUHU216HW,2013-04-16 20:25:00,
2013-04-16 16:30:00,70.7,60.0,29.60,SSE,158,2.9,4.7,69,0.00,,,0.02,WUHU216HW,2013-04-16 20:30:00,
2013-04-16 16:35:00,70.7,60.0,29.59,SE,135,4.9,4.9,69,0.00,,,0.02,WUHU216HW,2013-04-16 20:35:00,
2013-04-16 16:40:00,70.6,59.9,29.59,SE,135,4.0,4.9,69,0.00,,,0.02,WUHU216HW,2013-04-16 20:40:00,
2013-04-16 16:45:00,70.4,59.7,29.59,South,180,1.8,4.9,69,0.00,,,0.02,WUHU216HW,2013-04-16 20:45:00,
2013-04-16 16:50:00,70.6,59.9,29.59,SSE,158,4.7,4.7,69,0.00,,,0.02,WUHU216HW,2013-04-16 20:50:00,
2013-04-16 16:55:00,70.4,59.7,29.59,ENE,68,2.9,4.7,69,0.00,,,0.02,WUHU216HW,2013-04-16 20:55:00,
2013-04-16 17:00:00,70.4,59.7,29.59,South,180,4.0,4.7,69,0.00,,,0.02,WUHU216HW,2013-04-16 21:00:00,
2013-04-16 17:05:00,70.4,59.7,29.59,SW,225,4.0,4.3,69,0.00,,,0.02,WUHU216HW,2013-04-16 21:05:00,
2013-04-16 17:10:00,70.2,59.9,29.59,SE,135,4.0,5.4,70,0.00,,,0.02,WUHU216HW,2013-04-16 21:10:00,
2013-04-16 17:15:00,70.4,60.1,29.59,SE,135,2.2,5.4,70,0.00,,,0.02,WUHU216HW,2013-04-16 21:15:00,
2013-04-16 17:20:00,70.2,59.9,29.59,SSE,158,2.5,4.7,70,0.00,,,0.02,WUHU216HW,2013-04-16 21:20:00,
2013-04-16 17:25:00,70.2,59.9,29.59,SSE,158,3.4,5.4,70,0.00,,,0.02,WUHU216HW,2013-04-16 21:25:00,
2013-04-16 17:30:00,70.2,59.9,29.59,SE,135,1.6,5.4,70,0.00,,,0.02,WUHU216HW,2013-04-16 21:30:00,
2013-04-16 17:35:00,70.0,59.8,29.59,SE,135,2.7,4.7,70,0.00,,,0.02,WUHU216HW,2013-04-16 21:35:00,
2013-04-16 17:40:00,69.8,59.6,29.59,SE,135,2.9,4.7,70,0.00,,,0.02,WUHU216HW,2013-04-16 21:40:00,
2013-04-16 17:45:00,69.8,59.6,29.59,SSE,158,4.7,4.7,70,0.00,,,0.02,WUHU216HW,2013-04-16 21:45:00,
2013-04-16 17:50:00,69.8,59.6,29.59,SE,135,3.8,6.3,70,0.00,,,0.02,WUHU216HW,2013-04-16 21:50:00,
2013-04-16 17:55:00,69.7,59.4,29.59,SSE,158,2.2,6.3,70,0.00,,,0.02,WUHU216HW,2013-04-16 21:55:00,
2013-04-16 18:00:00,69.7,59.4,29.59,South,180,3.4,4.7,70,0.00,,,0.02,WUHU216HW,2013-04-16 22:00:00,
2013-04-16 18:05:00,69.5,59.2,29.59,SSE,158,2.7,3.6,70,0.00,,,0.02,WUHU216HW,2013-04-16 22:05:00,
2013-04-16 18:10:00,69.5,59.2,29.59,ESE,113,4.7,4.7,70,0.00,,,0.02,WUHU216HW,2013-04-16 22:10:00,
2013-04-16 18:15:00,69.3,59.1,29.59,SE,135,3.1,4.7,70,0.00,,,0.02,WUHU216HW,2013-04-16 22:15:00,
2013-04-16 18:20:00,69.1,59.0,29.59,SE,135,4.7,4.7,70,0.00,,,0.02,WUHU216HW,2013-04-16 22:20:00,
2013-04-16 18:25:00,69.1,59.0,29.58,SSE,158,3.1,4.7,70,0.00,,,0.02,WUHU216HW,2013-04-16 22:25:00,
2013-04-16 18:30:00,69.1,59.3,29.58,SE,135,2.9,4.7,71,0.00,,,0.02,WUHU216HW,2013-04-16 22:30:00,
2013-04-16 18:35:00,68.9,58.8,29.58,SE,135,2.9,3.4,70,0.00,,,0.02,WUHU216HW,2013-04-16 22:35:00,
2013-04-16 18:40:00,68.8,58.6,29.58,SE,135,2.5,3.6,70,0.00,,,0.02,WUHU216HW,2013-04-16 22:40:00,
2013-04-16 18:45:00,68.8,59.0,29.58,SSE,158,4.0,4.0,71,0.00,,,0.02,WUHU216HW,2013-04-16 22:45:00,
2013-04-16 18:50:00,68.6,58.9,29.58,SSE,158,4.7,4.7,71,0.00,,,0.02,WUHU216HW,2013-04-16 22:50:00,
2013-04-16 18:55:00,68.4,58.7,29.58,SSE,158,4.0,4.7,71,0.00,,,0.02,WUHU216HW,2013-04-16 22:55:00,
2013-04-16 19:00:00,68.4,58.7,29.58,SSE,158,2.9,4.7,71,0.00,,,0.02,WUHU216HW,2013-04-16 23:00:00,
2013-04-16 19:05:00,68.0,58.3,29.58,SSE,158,3.8,4.7,71,0.00,,,0.02,WUHU216HW,2013-04-16 23:05:00,
2013-04-16 19:10:00,68.0,58.3,29.57,SSE,158,2.7,3.8,71,0.00,,,0.02,WUHU216HW,2013-04-16 23:10:00,
2013-04-16 19:15:00,67.7,58.3,29.58,SSE,158,2.7,3.8,72,0.00,,,0.02,WUHU216HW,2013-04-16 23:15:00,
2013-04-16 19:20:00,67.5,58.1,29.58,South,180,2.5,3.4,72,0.00,,,0.02,WUHU216HW,2013-04-16 23:20:00,
2013-04-16 19:25:00,67.1,57.8,29.58,SE,135,1.1,2.7,72,0.00,,,0.02,WUHU216HW,2013-04-16 23:25:00,
2013-04-16 19:30:00,67.0,57.6,29.58,SSE,158,0.7,2.5,72,0.00,,,0.02,WUHU216HW,2013-04-16 23:30:00,
2013-04-16 19:35:00,66.6,57.7,29.58,SW,225,1.6,2.2,73,0.00,,,0.02,WUHU216HW,2013-04-16 23:35:00,
2013-04-16 19:40:00,66.2,57.3,29.58,SE,135,1.1,2.2,73,0.00,,,0.02,WUHU216HW,2013-04-16 23:40:00,
2013-04-16 19:45:00,65.9,57.0,29.58,South,180,0.9,2.5,73,0.00,,,0.02,WUHU216HW,2013-04-16 23:45:00,
2013-04-16 19:50:00,65.5,57.0,29.58,SE,135,3.4,3.4,74,0.00,,,0.02,WUHU216HW,2013-04-16 23:50:00,
2013-04-16 19:55:00,65.3,56.8,29.58,SE,135,1.6,3.6,74,0.00,,,0.02,WUHU216HW,2013-04-16 23:55:00,
2013-04-16 20:00:00,65.2,56.7,29.58,South,180,2.0,4.0,74,0.00,,,0.02,WUHU216HW,2013-04-17 00:00:00,
2013-04-16 20:05:00,64.8,57.1,29.58,SSE,158,4.0,4.0,76,0.00,,,0.02,WUHU216HW,2013-04-17 00:05:00,
2013-04-16 20:10:00,64.8,57.1,29.59,SSW,203,3.6,4.0,76,0.00,,,0.02,WUHU216HW,2013-04-17 00:10:00,
2013-04-16 20:15:00,64.8,57.1,29.59,SSW,203,3.4,4.0,76,0.00,,,0.02,WUHU216HW,2013-04-17 00:15:00,
2013-04-16 20:20:00,64.6,57.3,29.59,South,180,1.8,3.6,77,0.00,,,0.02,WUHU216HW,2013-04-17 00:20:00,
2013-04-16 20:25:00,64.6,56.9,29.59,SSW,203,3.1,3.4,76,0.00,,,0.02,WUHU216HW,2013-04-17 00:25:00,
2013-04-16 20:30:00,64.4,57.1,29.60,SSW,203,4.7,4.7,77,0.00,,,0.02,WUHU216HW,2013-04-17 00:30:00,
2013-04-16 20:35:00,64.4,57.1,29.60,SW,225,1.8,5.1,77,0.00,,,0.02,WUHU216HW,2013-04-17 00:35:00,
2013-04-16 20:40:00,64.3,56.9,29.60,SW,225,1.8,5.1,77,0.00,,,0.02,WUHU216HW,2013-04-17 00:40:00,
2013-04-16 20:45:00,63.9,56.5,29.60,SSW,203,3.1,3.4,77,0.00,,,0.02,WUHU216HW,2013-04-17 00:45:00,
2013-04-16 20:50:00,63.7,56.3,29.60,SE,135,2.9,3.4,77,0.00,,,0.02,WUHU216HW,2013-04-17 00:50:00,
2013-04-16 20:55:00,63.5,56.5,29.60,SSW,203,2.5,3.4,78,0.00,,,0.02,WUHU216HW,2013-04-17 00:55:00,
2013-04-16 21:00:00,63.4,56.0,29.59,SSW,203,2.7,2.9,77,0.00,,,0.02,WUHU216HW,2013-04-17 01:00:00,
2013-04-16 21:05:00,63.2,55.8,29.59,SW,225,1.1,2.7,77,0.00,,,0.02,WUHU216HW,2013-04-17 01:05:00,
2013-04-16 21:10:00,63.0,56.0,29.59,SSW,203,2.7,3.4,78,0.00,,,0.02,WUHU216HW,2013-04-17 01:10:00,
2013-04-16 21:15:00,63.2,56.2,29.59,South,180,1.8,3.4,78,0.00,,,0.02,WUHU216HW,2013-04-17 01:15:00,
2013-04-16 21:20:00,63.0,56.0,29.60,SW,225,1.3,3.4,78,0.00,,,0.02,WUHU216HW,2013-04-17 01:20:00,
2013-04-16 21:25:00,62.8,55.8,29.60,WSW,248,2.9,2.9,78,0.00,,,0.02,WUHU216HW,2013-04-17 01:25:00,
2013-04-16 21:30:00,62.8,55.8,29.60,SW,225,1.8,2.9,78,0.00,,,0.02,WUHU216HW,2013-04-17 01:30:00,
2013-04-16 21:35:00,62.8,56.2,29.61,SW,225,1.1,2.9,79,0.00,,,0.02,WUHU216HW,2013-04-17 01:35:00,
2013-04-16 21:40:00,62.6,56.0,29.61,SW,225,1.6,1.8,79,0.00,,,0.02,WUHU216HW,2013-04-17 01:40:00,
2013-04-16 21:45:00,62.6,56.0,29.61,SW,225,3.1,3.1,79,0.00,,,0.02,WUHU216HW,2013-04-17 01:45:00,
2013-04-16 21:50:00,62.8,56.2,29.61,SSW,203,2.7,3.1,79,0.00,,,0.02,WUHU216HW,2013-04-17 01:50:00,
2013-04-16 21:55:00,62.6,56.0,29.61,SE,135,0.9,3.1,79,0.00,,,0.02,WUHU216HW,2013-04-17 01:55:00,
2013-04-16 22:00:00,62.5,55.8,29.61,SSW,203,0.7,2.7,79,0.00,,,0.02,WUHU216HW,2013-04-17 02:00:00,
2013-04-16 22:05:00,62.3,55.6,29.62,SW,225,1.1,1.6,79,0.00,,,0.02,WUHU216HW,2013-04-17 02:05:00,
2013-04-16 22:10:00,61.9,55.4,29.61,SE,135,0.9,1.3,79,0.00,,,0.02,WUHU216HW,2013-04-17 02:10:00,
2013-04-16 22:15:00,61.6,55.4,29.62,SE,135,0.0,1.1,80,0.00,,,0.02,WUHU216HW,2013-04-17 02:15:00,
2013-04-16 22:20:00,61.4,55.2,29.62,South,180,0.7,2.0,80,0.00,,,0.02,WUHU216HW,2013-04-17 02:20:00,
2013-04-16 22:25:00,61.2,55.1,29.62,SSE,158,0.9,2.0,80,0.00,,,0.02,WUHU216HW,2013-04-17 02:25:00,
2013-04-16 22:30:00,61.0,54.9,29.61,SSW,203,1.6,1.8,80,0.00,,,0.02,WUHU216HW,2013-04-17 02:30:00,
2013-04-16 22:35:00,60.8,55.1,29.61,SE,135,1.6,1.8,81,0.00,,,0.02,WUHU216HW,2013-04-17 02:35:00,
2013-04-16 22:40:00,60.8,55.1,29.61,ESE,113,0.7,1.6,81,0.00,,,0.02,WUHU216HW,2013-04-17 02:40:00,
2013-04-16 22:45:00,60.5,54.7,29.61,SW,225,0.7,1.6,81,0.00,,,0.02,WUHU216HW,2013-04-17 02:45:00,
2013-04-16 22:50:00,60.5,55.0,29.61,WSW,248,1.1,1.8,82,0.00,,,0.02,WUHU216HW,2013-04-17 02:50:00,
2013-04-16 22:55:00,59.9,54.5,29.61,WSW,248,1.1,1.8,82,0.00,,,0.02,WUHU216HW,2013-04-17 02:55:00,
2013-04-16 23:00:00,59.4,54.3,29.61,SSW,203,0.0,1.1,83,0.00,,,0.02,WUHU216HW,2013-04-17 03:00:00,
2013-04-16 23:05:00,59.4,54.3,29.61,SSW,203,0.0,1.1,83,0.00,,,0.02,WUHU216HW,2013-04-17 03:05:00,
2013-04-16 23:10:00,59.4,54.3,29.60,SE,135,0.0,0.0,83,0.00,,,0.02,WUHU216HW,2013-04-17 03:10:00,
2013-04-16 23:15:00,59.4,54.3,29.60,SE,135,0.4,0.4,83,0.00,,,0.02,WUHU216HW,2013-04-17 03:15:00,
2013-04-16 23:20:00,59.4,54.3,29.60,SE,135,0.4,0.4,83,0.00,,,0.02,WUHU216HW,2013-04-17 03:20:00,
2013-04-16 23:25:00,59.4,54.3,29.60,WSW,248,0.4,0.9,83,0.00,,,0.02,WUHU216HW,2013-04-17 03:25:00,
2013-04-16 23:30:00,59.4,54.3,29.60,WSW,248,0.0,1.1,83,0.00,,,0.02,WUHU216HW,2013-04-17 03:30:00,
2013-04-16 23:35:00,59.4,54.3,29.60,WSW,248,1.3,1.6,83,0.00,,,0.02,WUHU216HW,2013-04-17 03:35:00,
2013-04-16 23:40:00,59.2,54.1,29.60,SSE,158,0.2,1.6,83,0.00,,,0.02,WUHU216HW,2013-04-17 03:40:00,
2013-04-16 23:45:00,59.0,53.9,29.60,ESE,113,0.0,1.3,83,0.00,,,0.02,WUHU216HW,2013-04-17 03:45:00,
2013-04-16 23:50:00,59.0,54.2,29.60,WSW,248,1.1,1.1,84,0.00,,,0.02,WUHU216HW,2013-04-17 03:50:00,
2013-04-16 23:55:00,59.0,54.5,29.60,WSW,248,1.1,1.1,85,0.00,,,0.02,WUHU216HW,2013-04-17 03:55:00,